Del Rio Laughlin AFB, TX

5:53 PM CDT on April 30, 2017 (GMT -0500)
Laughlin Air Force Base

Weather History for KDLF - March, 2013

Change the Weather History Date:

Tuesday, March 5, 2013

  Actual Average Record
Temperature  
Mean Temperature 58 °F -  
Max Temperature 71 °F 74 °F 87 °F (1998)
Min Temperature 45 °F 51 °F 30 °F (2007)
Degree Days  
Heating Degree Days 6    
Growing Degree Days 8 (Base 50)    
Moisture  
Dew Point 23 °F    
Average Humidity 27    
Maximum Humidity 47    
Minimum Humidity 14    
Precipitation  
Precipitation 0.00 in - - ()
Sea Level Pressure  
Sea Level Pressure 30.23 in    
Wind  
Wind Speed 14 mph (North)    
Max Wind Speed 28 mph    
Max Gust Speed 38 mph    
Visibility 10 miles    
Events      
Averages and records for this station are not official NWS values.
T = Trace of Precipitation, MM = Missing Value Source: NWS Daily Summary

Daily Weather History Graph

Daily Weather History Graph

Search for Another Location

Airport or City:

Trip Planner

Search our weather history database for the weather conditions in past years. The results will help you decide how hot, cold, wet, or windy it might be!

Date:

Astronomy

Mar. 05, 2013 Rise Set
Actual Time 7:03 AM CST 6:45 PM CST
Civil Twilight 6:40 AM CST 7:09 PM CST
Nautical Twilight 6:12 AM CST 7:36 PM CST
Astronomical Twilight 5:45 AM CST 8:04 PM CST
Moon 1:58 AM CST (3/5) 12:46 PM CST (3/5)
Length of Visible Light 12h 29m
Length of Day
11h 41m
Last Quarter, 40% of the Moon is Illuminated
Mar 5
Last Quarter
Mar 11
New
Mar 19
First Quarter
Mar 27
Full
Apr 2
Last Quarter

Hourly Weather History & Observations

Time (CST) Temp. Windchill Dew Point Humidity Pressure Visibility Wind Dir Wind Speed Gust Speed Precip Events Conditions
12:58 AM 61.5 °F - 24.4 °F 24% 29.74 in 10.0 mi ENE 9.2 mph - N/A   Clear
1:58 AM 63.7 °F - 26.1 °F 24% 29.80 in 10.0 mi NNW 9.2 mph - N/A   Clear
2:58 AM 68.9 °F - 26.2 °F 20% 29.82 in 10.0 mi NNW 11.5 mph - N/A   Clear
3:58 AM 71.4 °F - 20.3 °F 14% 29.86 in 10.0 mi North 21.9 mph 28.8 mph N/A   Clear
4:58 AM 58.1 °F - 35.6 °F 43% 29.98 in 10.0 mi NNE 27.6 mph 38.0 mph N/A   Clear
5:58 AM 53.2 °F - 33.3 °F 47% 30.12 in 10.0 mi North 16.1 mph 35.7 mph N/A   Clear
6:58 AM 51.8 °F - 30.7 °F 45% 30.20 in 10.0 mi North 25.3 mph 35.7 mph N/A   Clear
7:58 AM 51.8 °F - 29.1 °F 42% 30.27 in 10.0 mi NNW 20.7 mph 31.1 mph N/A   Clear
8:58 AM 52.5 °F - 27.7 °F 38% 30.34 in 10.0 mi NNW 20.7 mph 26.5 mph N/A   Clear
9:58 AM 55.0 °F - 25.2 °F 32% 30.38 in 10.0 mi NNW 23.0 mph 27.6 mph N/A   Clear
10:58 AM 57.2 °F - 22.8 °F 27% 30.38 in 10.0 mi North 18.4 mph 24.2 mph N/A   Clear
11:58 AM 59.2 °F - 21.4 °F 23% 30.37 in 10.0 mi NNW 20.7 mph 31.1 mph N/A   Clear
12:58 PM 62.4 °F - 21.2 °F 21% 30.35 in 10.0 mi NW 18.4 mph 27.6 mph N/A   Partly Cloudy
1:12 PM 62.6 °F - 21.2 °F 20% 30.35 in 10.0 mi NW 16.1 mph 25.3 mph N/A   Clear
1:58 PM 64.2 °F - 22.6 °F 20% 30.31 in 10.0 mi NW 11.5 mph 21.9 mph N/A   Clear
2:20 PM 66.2 °F - 23.0 °F 19% 30.32 in 10.0 mi North 17.3 mph 21.9 mph N/A   Clear
2:58 PM 66.0 °F - 23.0 °F 20% 30.28 in 10.0 mi NNW 10.4 mph 19.6 mph N/A   Clear
3:01 PM 66.2 °F - 23.0 °F 19% 30.30 in 10.0 mi North 16.1 mph 21.9 mph N/A   Clear
3:19 PM 66.2 °F - 23.0 °F 19% 30.30 in 10.0 mi North 12.7 mph 23.0 mph N/A   Clear
3:54 PM 66.2 °F - 23.0 °F 19% 30.30 in 10.0 mi NNW 11.5 mph 17.3 mph N/A   Clear
3:58 PM 66.9 °F - 23.7 °F 20% 30.27 in 10.0 mi NNW 13.8 mph - N/A   Clear
4:58 PM 68.2 °F - 23.5 °F 19% 30.27 in 10.0 mi NNW 11.5 mph - N/A   Clear
5:58 PM 66.9 °F - 22.5 °F 19% 30.27 in 10.0 mi NNW 11.5 mph - N/A   Clear
6:58 PM 62.4 °F - 22.5 °F 22% 30.28 in 10.0 mi North 4.6 mph - N/A   Clear
7:58 PM 58.1 °F - 21.7 °F 25% 30.30 in 10.0 mi NNE 5.8 mph - N/A   Clear
8:58 PM 52.7 °F - 20.7 °F 29% 30.31 in 10.0 mi North 8.1 mph - N/A   Clear
9:58 PM 51.3 °F - 19.4 °F 29% 30.33 in 10.0 mi NNE 8.1 mph - N/A   Clear
10:58 PM 46.6 °F - 17.6 °F 32% 30.34 in 10.0 mi NNE 6.9 mph - N/A   Clear
11:08 PM 46.4 °F 42.9 °F 17.6 °F 32% 30.34 in 8.0 mi NNE 6.9 mph - N/A   Clear
11:18 PM 46.4 °F 42.9 °F 17.6 °F 32% 30.33 in 10.0 mi NNE 6.9 mph - N/A   Clear
11:58 PM 45.1 °F 42.8 °F 16.5 °F 32% 30.33 in 10.0 mi NNE 4.6 mph - N/A   Clear